| time (UTC) | temp C | wind direction | speed KPH | gust KPH | rain 1hr cm | rain 24hr cm | rain mn cm | humidity % | barometer mb |
| 20260506222028 | 9 | 0.0 | 0.0 | 0.00 | 0.79 | 0.00 | 95 | 1014.4 | |
| 20260506221052 | 9 | 0.0 | 0.0 | 0.00 | 0.79 | 0.00 | 95 | 1014.2 | |
| 20260506220156 | 8 | 27 | 0.0 | 1.6 | 0.00 | 0.79 | 0.00 | 95 | 1014.2 |
| 20260506215037 | 9 | 69 | 0.0 | 1.6 | 0.00 | 0.79 | 0.79 | 95 | 1014.0 |
| 20260506214101 | 9 | 0.0 | 0.0 | 0.00 | 0.79 | 0.79 | 94 | 1014.1 | |
| 20260506213102 | 9 | 0.0 | 0.0 | 0.00 | 0.79 | 0.79 | 94 | 1013.9 | |
| 20260506212046 | 9 | 0.0 | 0.0 | 0.00 | 0.79 | 0.79 | 94 | 1014.0 | |
| 20260506211111 | 9 | 0.0 | 0.0 | 0.00 | 0.79 | 0.79 | 94 | 1013.9 | |
| 20260506210031 | 10 | 0.0 | 0.0 | 0.00 | 0.79 | 0.79 | 93 | 1013.8 | |
| 20260506205135 | 10 | 0.0 | 0.0 | 0.00 | 0.79 | 0.79 | 93 | 1013.8 | |
| 20260506204200 | 10 | 0.0 | 0.0 | 0.00 | 0.79 | 0.79 | 93 | 1013.9 | |
| 20260506203039 | 10 | 8 | 0.0 | 1.6 | 0.00 | 0.79 | 0.79 | 92 | 1013.8 |
| 20260506202105 | 10 | 0.0 | 0.0 | 0.00 | 0.79 | 0.79 | 92 | 1013.6 | |
| 20260506201045 | 10 | 0.0 | 0.0 | 0.00 | 0.79 | 0.79 | 92 | 1013.5 | |
| 20260506200050 | 10 | 0.0 | 0.0 | 0.00 | 0.79 | 0.79 | 92 | 1013.3 | |
| 20260506195114 | 10 | 0.0 | 0.0 | 0.00 | 0.79 | 0.79 | 92 | 1013.3 | |
| 20260506194034 | 10 | 0.0 | 0.0 | 0.00 | 0.79 | 0.79 | 92 | 1013.2 | |
| 20260506193058 | 10 | 0.0 | 0.0 | 0.00 | 0.79 | 0.79 | 91 | 1013.0 | |
| 20260506192019 | 10 | 0.0 | 0.0 | 0.00 | 0.79 | 0.79 | 92 | 1012.9 | |
| 20260506191043 | 10 | 0.0 | 0.0 | 0.00 | 0.79 | 0.79 | 92 | 1012.4 | |
| 20260506190108 | 10 | 0.0 | 0.0 | 0.00 | 0.79 | 0.79 | 91 | 1012.3 | |
| 20260506185027 | 10 | 0.0 | 0.0 | 0.00 | 0.79 | 0.79 | 90 | 1012.1 | |
| 20260506184053 | 10 | 0.0 | 0.0 | 0.00 | 0.79 | 0.79 | 91 | 1012.1 | |
| 20260506183156 | 10 | 0.0 | 0.0 | 0.00 | 0.79 | 0.79 | 91 | 1011.9 | |
| 20260506182037 | 10 | 0.0 | 0.0 | 0.00 | 0.79 | 0.79 | 89 | 1011.8 | |
| 20260506181103 | 10 | 0.0 | 0.0 | 0.00 | 0.79 | 0.79 | 86 | 1011.9 | |
| 20260506180104 | 10 | 0.0 | 0.0 | 0.00 | 0.79 | 0.79 | 86 | 1012.0 | |
| 20260506175047 | 10 | 101 | 0.0 | 3.2 | 0.00 | 0.79 | 0.79 | 84 | 1011.9 |
| 20260506174112 | 10 | 56 | 0.0 | 1.6 | 0.00 | 0.79 | 0.79 | 85 | 1011.7 |
| 20260506173031 | 10 | 94 | 3.2 | 9.7 | 0.00 | 0.79 | 0.79 | 85 | 1011.7 |
| 20260506172056 | 11 | 89 | 1.6 | 9.7 | 0.00 | 0.79 | 0.79 | 85 | 1011.6 |
| 20260506171017 | 12 | 26 | 0.0 | 3.2 | 0.00 | 0.79 | 0.79 | 82 | 1011.5 |
| 20260506170041 | 13 | 343 | 0.0 | 1.6 | 0.00 | 0.79 | 0.79 | 79 | 1011.4 |
| 20260506165105 | 12 | 344 | 0.0 | 1.6 | 0.00 | 0.79 | 0.79 | 79 | 1011.4 |
| 20260506164026 | 12 | 303 | 1.6 | 4.8 | 0.08 | 0.79 | 0.79 | 82 | 1011.4 |
| 20260506163050 | 10 | 313 | 1.6 | 4.8 | 0.13 | 0.79 | 0.79 | 85 | 1011.4 |
| 20260506162115 | 10 | 12 | 1.6 | 3.2 | 0.18 | 0.79 | 0.79 | 89 | 1011.5 |
| 20260506161035 | 10 | 341 | 1.6 | 4.8 | 0.23 | 0.79 | 0.79 | 91 | 1011.7 |
| 20260506160059 | 10 | 352 | 0.0 | 3.2 | 0.30 | 0.79 | 0.79 | 93 | 1011.8 |
| 20260506155100 | 10 | 10 | 1.6 | 3.2 | 0.30 | 0.79 | 0.79 | 93 | 1012.2 |
| 20260506154124 | 10 | 316 | 1.6 | 6.4 | 0.23 | 0.74 | 0.71 | 92 | 1012.2 |
| 20260506153109 | 10 | 3 | 1.6 | 6.4 | 0.18 | 0.74 | 0.66 | 91 | 1012.2 |
| 20260506152029 | 10 | 322 | 1.6 | 3.2 | 0.13 | 0.69 | 0.61 | 90 | 1012.2 |
| 20260506151054 | 10 | 301 | 1.6 | 3.2 | 0.08 | 0.64 | 0.56 | 85 | 1012.1 |
| 20260506150118 | 11 | 313 | 1.6 | 3.2 | 0.00 | 0.56 | 0.48 | 79 | 1011.7 |
| 20260506145119 | 11 | 169 | 0.0 | 3.2 | 0.00 | 0.56 | 0.48 | 71 | 1011.3 |
| 20260506144103 | 11 | 103 | 1.6 | 9.7 | 0.00 | 0.56 | 0.48 | 70 | 1010.8 |
| 20260506143022 | 12 | 117 | 3.2 | 9.7 | 0.00 | 0.56 | 0.48 | 69 | 1010.6 |
| 20260506142048 | 12 | 38 | 3.2 | 11.3 | 0.00 | 0.56 | 0.48 | 70 | 1010.7 |
| 20260506141111 | 11 | 97 | 6.4 | 20.9 | 0.00 | 0.56 | 0.48 | 72 | 1011.0 |
| 20260506140112 | 11 | 99 | 4.8 | 17.7 | 0.00 | 0.56 | 0.48 | 76 | 1011.0 |
| 20260506135057 | 10 | 88 | 8.0 | 20.9 | 0.00 | 0.56 | 0.48 | 79 | 1011.1 |
| 20260506134017 | 10 | 111 | 4.8 | 17.7 | 0.00 | 0.56 | 0.48 | 81 | 1011.2 |
| 20260506133042 | 10 | 109 | 3.2 | 12.9 | 0.03 | 0.56 | 0.48 | 84 | 1011.3 |
| 20260506132106 | 10 | 124 | 6.4 | 16.1 | 0.05 | 0.56 | 0.48 | 84 | 1011.4 |
| 20260506131027 | 10 | 96 | 6.4 | 16.1 | 0.10 | 0.56 | 0.48 | 87 | 1011.3 |
| 20260506130051 | 10 | 106 | 4.8 | 14.5 | 0.13 | 0.56 | 0.48 | 90 | 1011.4 |
| 20260506125115 | 10 | 81 | 4.8 | 16.1 | 0.18 | 0.56 | 0.48 | 91 | 1011.0 |
| 20260506124035 | 10 | 75 | 1.6 | 6.4 | 0.20 | 0.56 | 0.48 | 91 | 1011.4 |
| 20260506123100 | 10 | 87 | 1.6 | 6.4 | 0.18 | 0.53 | 0.46 | 91 | 1011.3 |
| 20260506122020 | 10 | 91 | 3.2 | 6.4 | 0.18 | 0.51 | 0.43 | 92 | 1011.4 |
| 20260506121045 | 10 | 85 | 1.6 | 3.2 | 0.15 | 0.46 | 0.38 | 91 | 1011.4 |
| 20260506120109 | 10 | 74 | 0.0 | 1.6 | 0.15 | 0.43 | 0.36 | 89 | 1011.1 |
| 20260506115030 | 10 | 0.0 | 0.0 | 0.15 | 0.38 | 0.30 | 88 | 1011.1 | |
| 20260506114054 | 10 | 58 | 0.0 | 1.6 | 0.15 | 0.36 | 0.28 | 91 | 1010.9 |
| 20260506113159 | 10 | 0.0 | 0.0 | 0.18 | 0.36 | 0.28 | 92 | 1010.8 | |
| 20260506112039 | 10 | 0.0 | 1.6 | 0.15 | 0.33 | 0.25 | 92 | 1010.7 | |
| 20260506111103 | 10 | 18 | 0.0 | 1.6 | 0.13 | 0.30 | 0.23 | 92 | 1010.6 |
| 20260506110024 | 10 | 0.0 | 1.6 | 0.10 | 0.28 | 0.20 | 92 | 1010.4 | |
| 20260506105049 | 10 | 2 | 0.0 | 1.6 | 0.05 | 0.23 | 0.15 | 90 | 1010.2 |
| 20260506104112 | 10 | 353 | 1.6 | 3.2 | 0.03 | 0.20 | 0.13 | 88 | 1010.1 |
| 20260506103033 | 10 | 18 | 0.0 | 4.8 | 0.00 | 0.18 | 0.10 | 88 | 1010.0 |
| 20260506102137 | 11 | 8 | 1.6 | 6.4 | 0.00 | 0.18 | 0.10 | 88 | 1009.9 |
| 20260506101018 | 11 | 278 | 1.6 | 4.8 | 0.00 | 0.18 | 0.10 | 84 | 1009.7 |
| 20260506100042 | 11 | 0.0 | 0.0 | 0.00 | 0.18 | 0.10 | 83 | 1009.6 | |
| 20260506095106 | 11 | 66 | 1.6 | 4.8 | 0.03 | 0.18 | 0.10 | 82 | 1009.7 |
| 20260506094027 | 11 | 122 | 3.2 | 9.7 | 0.03 | 0.18 | 0.10 | 82 | 1009.7 |
| 20260506093052 | 11 | 117 | 1.6 | 9.7 | 0.03 | 0.18 | 0.10 | 82 | 1009.3 |
| 20260506092116 | 11 | 75 | 0.0 | 3.2 | 0.03 | 0.18 | 0.10 | 83 | 1009.2 |
| 20260506091036 | 11 | 110 | 4.8 | 11.3 | 0.03 | 0.18 | 0.10 | 82 | 1009.1 |
| 20260506090100 | 11 | 111 | 1.6 | 4.8 | 0.03 | 0.18 | 0.10 | 83 | 1008.9 |
| 20260506085021 | 11 | 96 | 3.2 | 6.4 | 0.00 | 0.15 | 0.08 | 82 | 1008.6 |
| 20260506084045 | 11 | 29 | 1.6 | 6.4 | 0.00 | 0.15 | 0.08 | 82 | 1008.6 |
| 20260506083110 | 11 | 0.0 | 0.0 | 0.00 | 0.15 | 0.08 | 85 | 1008.5 | |
| 20260506082030 | 11 | 1 | 0.0 | 1.6 | 0.00 | 0.15 | 0.08 | 88 | 1008.3 |
| 20260506081055 | 11 | 286 | 1.6 | 6.4 | 0.03 | 0.15 | 0.08 | 89 | 1008.3 |
| 20260506080159 | 11 | 315 | 1.6 | 3.2 | 0.05 | 0.15 | 0.08 | 90 | 1008.3 |
| 20260506073025 | 11 | 4 | 0.0 | 1.6 | 0.08 | 0.15 | 0.08 | 92 | 1008.2 |
| 20260506072049 | 11 | 263 | 1.6 | 3.2 | 0.08 | 0.15 | 0.08 | 91 | 1008.2 |
| 20260506071114 | 11 | 7 | 0.0 | 3.2 | 0.05 | 0.13 | 0.05 | 91 | 1008.0 |
| 20260506070113 | 10 | 0.0 | 0.0 | 0.03 | 0.10 | 0.03 | 91 | 1008.1 | |
| 20260506062107 | 10 | 27 | 0.0 | 1.6 | 0.00 | 0.08 | 0.00 | 91 | 1007.8 |
| 20260506061027 | 10 | 0.0 | 1.6 | 0.00 | 0.08 | 0.00 | 91 | 1007.7 | |
| 20260506051046 | 10 | 0.0 | 0.0 | 0.00 | 0.08 | 0.00 | 92 | 1007.9 | |
| 20260506050111 | 10 | 0.0 | 0.0 | 0.00 | 0.08 | 0.00 | 92 | 1008.1 | |
| 20260506045032 | 10 | 0.0 | 0.0 | 0.00 | 0.08 | 0.00 | 92 | 1008.1 | |
| 20260506044055 | 10 | 0.0 | 0.0 | 0.00 | 0.08 | 0.00 | 92 | 1008.1 | |
| 20260506043119 | 10 | 346 | 1.6 | 3.2 | 0.00 | 0.08 | 0.00 | 92 | 1008.2 |
| 20260506042040 | 10 | 3 | 0.0 | 4.8 | 0.00 | 0.08 | 0.00 | 93 | 1008.3 |
| 20260506041104 | 10 | 356 | 0.0 | 3.2 | 0.00 | 0.08 | 0.00 | 94 | 1008.4 |
| 20260506040025 | 10 | 0.0 | 3.2 | 0.00 | 0.08 | 0.00 | 93 | 1008.2 | |
| 20260506035049 | 10 | 0.0 | 3.2 | 0.00 | 0.08 | 0.00 | 92 | 1008.2 | |
| 20260506034115 | 10 | 0.0 | 0.0 | 0.00 | 0.08 | 0.00 | 90 | 1008.4 | |
| 20260506033034 | 11 | 0.0 | 0.0 | 0.00 | 0.08 | 0.00 | 87 | 1008.6 | |
| 20260506032059 | 11 | 84 | 0.0 | 3.2 | 0.00 | 0.08 | 0.00 | 85 | 1008.8 |
| 20260506031019 | 11 | 0.0 | 1.6 | 0.00 | 0.08 | 0.00 | 85 | 1009.1 | |
| 20260506030044 | 11 | 17 | 0.0 | 1.6 | 0.00 | 0.08 | 0.00 | 86 | 1009.1 |
| 20260506025107 | 11 | 7 | 1.6 | 3.2 | 0.00 | 0.08 | 0.00 | 86 | 1009.4 |
| 20260506024029 | 10 | 17 | 0.0 | 3.2 | 0.00 | 0.08 | 0.00 | 89 | 1009.6 |
| 20260506023052 | 10 | 0.0 | 0.0 | 0.00 | 0.08 | 0.00 | 91 | 1009.8 | |
| 20260506022118 | 10 | 0.0 | 0.0 | 0.00 | 0.08 | 0.00 | 91 | 1010.0 | |
| 20260506021037 | 10 | 0.0 | 0.0 | 0.00 | 0.08 | 0.00 | 91 | 1010.3 | |
| 20260506015103 | 10 | 77 | 0.0 | 1.6 | 0.00 | 0.08 | 0.00 | 89 | 1010.7 |
| 20260506014047 | 11 | 120 | 0.0 | 3.2 | 0.00 | 0.08 | 0.00 | 89 | 1010.7 |
| 20260506013112 | 10 | 0.0 | 1.6 | 0.00 | 0.08 | 0.00 | 90 | 1010.8 | |
| 20260506012032 | 11 | 78 | 0.0 | 1.6 | 0.00 | 0.08 | 0.00 | 90 | 1010.6 |
| 20260506011056 | 11 | 0.0 | 0.0 | 0.00 | 0.08 | 0.00 | 90 | 1010.9 | |
| 20260506010017 | 11 | 0.0 | 0.0 | 0.00 | 0.08 | 0.00 | 90 | 1010.8 | |
| 20260506005041 | 11 | 56 | 0.0 | 1.6 | 0.00 | 0.08 | 0.00 | 90 | 1010.9 |
| 20260506004105 | 10 | 73 | 1.6 | 3.2 | 0.00 | 0.08 | 0.00 | 91 | 1011.3 |
| 20260506003026 | 10 | 0.0 | 0.0 | 0.00 | 0.08 | 0.00 | 91 | 1011.5 | |
| 20260506002050 | 11 | 0.0 | 0.0 | 0.00 | 0.08 | 0.00 | 91 | 1011.6 | |
| 20260506001115 | 11 | 0.0 | 0.0 | 0.00 | 0.08 | 0.00 | 91 | 1011.8 | |
| 20260506000115 | 11 | 0.0 | 1.6 | 0.00 | 0.08 | 0.00 | 90 | 1012.0 | |
| 20260505235059 | 11 | 347 | 0.0 | 4.8 | 0.00 | 0.08 | 0.00 | 90 | 1012.1 |
| 20260505234020 | 11 | 3 | 1.6 | 3.2 | 0.00 | 0.08 | 0.00 | 90 | 1012.1 |
| 20260505233045 | 11 | 357 | 0.0 | 1.6 | 0.00 | 0.08 | 0.00 | 90 | 1012.3 |
| 20260505232109 | 11 | 0.0 | 3.2 | 0.00 | 0.08 | 0.00 | 90 | 1012.6 | |
| 20260505231028 | 11 | 309 | 0.0 | 3.2 | 0.00 | 0.08 | 0.00 | 91 | 1012.6 |
| 20260505230053 | 11 | 359 | 0.0 | 1.6 | 0.00 | 0.08 | 0.00 | 91 | 1012.3 |
| 20260505225118 | 11 | 339 | 1.6 | 4.8 | 0.00 | 0.08 | 0.00 | 91 | 1012.1 |
| 20260505224039 | 11 | 14 | 1.6 | 3.2 | 0.00 | 0.08 | 0.00 | 91 | 1012.2 |
| 20260505223103 | 11 | 340 | 0.0 | 3.2 | 0.00 | 0.08 | 0.00 | 90 | 1012.3 |